Wind_Speed
20 21 20 20 18 17 16 13 12 12 14 16 19 24 27 26 22 30 32 32 33 33 32 34 36 37 38 34 36 38 36 34 37 32 29 26 26 29 26 26 27 24 22 23 25
20 22 21 20 20 18 16 15 13 12 13 14 14 15 18 23 27 28 30 30 32 33 30 32 33 32 31 35 38 41 31 31 40 39 33 33 28 27 28 28 29 30 29 28 29
23 22 22 22 21 19 18 16 15 13 14 13 13 13 14 16 20 24 31 31 29 35 32 35 36 36 35 34 37 37 31 37 34 31 36 39 36 36 33 31 31 32 32 31 31
25 24 24 23 22 21 20 18 17 15 14 14 12 11 12 13 15 19 23 28 29 28 28 28 35 40 41 37 36 39 35 36 36 34 32 31 30 35 33 32 33 32 33 32 32
28 27 26 25 24 22 21 20 19 17 16 15 13 12 11 12 16 16 17 22 25 25 27 27 27 34 39 40 39 33 37 35 34 33 32 33 32 30 28 30 37 34 35 34 33
30 29 28 27 26 24 23 22 20 18 18 16 15 14 11 10 10 14 17 17 17 18 20 25 30 31 34 38 41 35 37 35 38 34 35 36 34 32 35 35 35 29 42 37 37
33 32 31 29 28 26 25 24 22 20 19 18 16 15 12 10 8 10 15 18 18 17 17 17 23 33 34 37 39 36 42 39 35 35 35 37 37 38 38 37 35 33 33 40 39
36 34 34 32 30 28 27 25 23 21 20 19 18 17 14 12 9 8 11 16 19 18 17 16 16 26 35 37 40 40 42 41 43 38 38 36 36 40 40 39 38 36 38 37 38
39 37 36 35 33 30 28 26 24 23 21 20 19 17 16 14 12 9 9 11 17 19 18 18 16 19 31 36 37 39 43 44 40 42 41 40 39 39 37 37 36 37 36 37 39
39 38 38 37 35 32 30 28 25 24 22 22 21 19 18 16 13 10 8 10 14 18 18 15 13 17 26 33 37 38 43 38 39 37 37 38 35 34 35 36 35 34 34 35 36
39 40 39 38 37 35 33 29 27 25 25 24 22 21 20 18 16 12 9 10 14 16 17 13 9 8 11 19 26 25 25 29 30 31 32 33 34 33 32 34 36 35 34 33 34
40 40 40 39 38 37 35 32 30 28 27 26 25 23 21 22 19 16 12 11 12 14 16 16 12 11 14 17 21 23 23 25 25 27 27 28 30 32 33 33 34 34 35 35 35
40 40 41 41 40 39 37 34 33 31 29 27 28 25 24 23 24 19 18 15 14 13 12 16 16 13 12 13 17 22 21 21 25 26 28 33 35 38 38 35 33 33 34 34 33
40 41 41 41 41 40 39 37 35 33 33 31 30 29 26 26 26 24 21 19 16 14 12 15 14 17 16 15 14 15 18 21 25 21 25 26 28 34 32 35 37 37 36 36 36
40 41 42 42 42 41 40 39 37 35 38 35 33 30 28 28 25 26 23 23 21 17 15 15 15 14 15 15 17 15 17 20 21 24 24 26 27 32 29 32 33 34 33 33 32
40 41 42 43 43 42 41 40 38 38 43 36 34 31 29 29 29 29 27 25 26 25 21 20 18 18 16 16 15 15 15 17 19 21 22 21 23 23 24 26 27 27 27 26 26
42 42 43 43 44 43 42 42 42 45 42 39 33 29 30 30 31 31 30 28 27 27 26 24 22 21 20 20 19 17 16 15 18 19 18 18 21 21 20 21 22 21 22 23 21
43 44 44 44 44 45 44 45 46 46 42 41 36 33 31 31 34 32 32 33 28 29 27 26 25 23 21 21 18 17 18 18 18 18 20 21 22 22 20 20 20 19 18 18 18
45 46 45 44 45 46 47 48 48 46 44 41 39 36 34 31 32 33 32 33 34 29 31 29 29 24 24 22 22 21 20 19 19 19 19 20 20 20 19 18 17 16 17 17 17
45 46 47 46 46 48 49 49 48 47 45 43 41 38 36 34 33 32 33 34 35 35 33 32 30 28 25 25 23 21 20 20 19 19 19 18 19 19 18 18 17 17 17 17 18
43 45 47 47 48 50 50 51 48 47 47 45 45 41 38 39 36 35 33 33 34 37 35 33 33 31 29 27 24 22 21 21 20 19 17 17 18 18 18 19 19 18 18 17 17
42 43 46 47 50 51 52 51 50 49 48 48 47 45 42 42 40 37 39 32 36 36 36 36 34 33 30 28 25 26 25 23 23 19 16 17 18 18 19 19 18 17 16 15 15
39 40 43 46 49 50 51 52 49 48 49 50 49 48 44 45 45 42 37 38 35 38 38 37 39 36 36 34 33 28 24 23 21 21 19 19 18 19 19 18 17 15 14 14 13
38 38 41 44 47 47 48 50 51 51 52 52 52 50 47 47 47 44 42 39 36 37 39 39 40 38 35 34 29 26 23 23 24 23 20 18 19 19 17 16 14 13 13 13 12
37 38 39 41 42 42 45 47 49 52 53 55 54 52 51 48 49 49 43 43 38 36 40 42 41 39 38 37 34 32 29 27 27 24 23 21 21 20 17 16 13 12 13 12 12
38 38 39 37 37 39 42 46 48 51 54 55 54 53 53 51 52 49 45 43 45 38 37 40 42 40 38 38 37 36 33 29 27 26 23 21 21 19 19 16 13 12 12 12 12
39 38 38 36 36 37 40 42 45 48 52 53 55 54 54 54 54 50 52 45 45 46 38 39 40 41 42 40 40 43 33 28 26 24 24 24 22 25 20 16 16 13 13 12 12
Wind_Direction
262 261 259 263 265 267 269 268 268 270 270 267 264 260 258 256 252 238 244 241 235 239 236 232 234 237 238 235 246 253 212 202 191 195 200 210 215 219 226 218 219 216 205 203 202
265 262 264 263 265 265 266 268 265 266 270 273 272 268 261 256 249 240 236 240 237 233 232 232 230 238 236 237 241 250 234 213 206 197 201 204 214 218 228 230 216 209 210 210 212
259 263 262 262 264 266 264 267 266 263 268 271 273 273 271 264 255 246 242 243 241 243 239 233 230 232 236 238 232 240 241 227 218 218 211 195 203 219 219 219 222 218 215 216 217
260 258 259 260 261 261 263 263 266 268 266 268 272 272 269 268 258 253 246 244 241 239 239 232 226 228 231 233 236 234 247 231 224 218 228 235 218 209 211 222 222 223 225 222 222
260 258 259 259 260 258 257 260 265 271 271 269 273 273 272 263 254 254 253 244 242 240 233 233 228 232 229 230 233 230 233 234 228 219 228 236 239 232 228 231 227 226 229 230 230
258 257 257 259 259 258 257 258 262 266 268 269 271 273 267 261 266 253 245 239 237 229 229 229 228 229 226 222 221 227 227 235 232 218 223 227 230 233 232 230 232 244 229 238 236
257 255 254 254 257 258 256 256 258 259 258 261 265 266 254 259 267 254 241 241 236 232 228 230 225 223 223 218 217 223 222 224 238 221 222 223 224 228 231 231 234 236 239 239 247
255 252 252 251 252 254 256 254 254 255 258 258 256 258 248 252 256 263 245 233 229 229 233 235 234 226 219 216 217 217 219 224 222 224 231 232 234 232 232 232 235 234 231 243 239
252 251 251 251 249 250 252 253 252 251 252 253 254 251 247 249 255 268 257 239 227 225 234 238 234 226 219 215 213 215 217 215 221 229 230 230 232 233 236 239 238 240 240 239 241
252 250 248 249 249 248 248 248 248 247 246 246 247 246 241 243 245 254 254 239 227 220 214 214 229 221 217 215 215 211 216 213 218 220 224 227 232 235 236 239 243 242 243 245 246
249 248 247 247 247 247 247 246 245 244 243 243 242 239 236 236 240 240 239 224 215 211 208 202 209 193 194 204 206 208 213 221 220 221 223 228 230 233 235 237 241 244 247 249 251
251 249 245 244 246 245 245 245 244 243 243 243 241 238 233 230 233 230 225 222 216 202 205 204 187 161 182 195 202 203 204 209 211 216 224 225 229 232 234 238 241 244 249 254 258
251 248 246 244 243 243 242 242 242 242 240 240 241 237 233 229 227 226 216 216 202 205 203 200 191 178 169 172 190 201 205 208 210 213 220 219 223 225 228 232 238 242 246 249 251
250 247 244 243 243 242 242 238 238 239 241 238 238 236 231 228 224 225 219 213 212 208 200 194 194 191 199 201 191 190 200 209 218 231 221 237 242 228 228 230 236 244 245 247 251
248 247 245 241 241 240 239 240 237 236 241 237 235 237 231 230 225 225 224 214 211 210 203 193 198 198 197 193 200 197 203 208 218 224 231 234 242 240 241 237 240 243 246 250 256
248 247 243 242 239 239 237 237 237 235 238 237 235 234 233 228 226 222 223 220 216 217 212 201 208 210 206 206 207 207 208 212 220 225 231 236 241 239 241 242 244 247 249 252 256
247 247 244 241 239 238 236 235 234 234 236 238 236 233 232 228 228 224 222 222 222 222 219 214 209 208 210 215 211 209 213 222 230 237 245 248 250 254 248 243 242 243 246 250 252
248 245 243 239 238 236 235 233 234 235 233 237 234 233 232 228 227 224 222 222 222 221 220 223 216 214 212 212 211 216 216 224 234 242 249 246 245 247 245 239 238 239 241 244 247
242 245 242 240 236 235 235 234 233 234 233 232 233 232 231 231 231 226 224 222 221 223 223 221 220 218 219 217 215 220 220 229 239 243 244 243 242 238 235 235 236 237 238 240 246
240 240 242 239 235 234 233 233 234 233 234 231 231 229 227 230 231 227 225 224 221 221 223 222 223 221 222 220 220 223 227 229 237 238 238 238 237 237 234 233 234 237 241 247 251
242 240 239 240 237 234 234 233 232 232 232 229 229 229 224 227 232 226 223 224 223 223 225 223 226 225 225 224 224 228 231 238 241 235 237 239 239 239 237 236 237 242 245 249 253
244 243 241 239 238 236 234 233 232 232 231 231 228 228 225 224 228 228 226 224 220 220 225 224 226 227 227 227 227 230 232 234 236 233 238 239 239 239 238 239 241 243 246 250 252
245 245 243 240 238 236 235 234 232 229 230 231 228 227 225 222 226 228 225 223 223 220 222 221 224 225 227 225 225 230 234 237 237 232 232 235 236 238 237 238 239 241 244 248 253
247 247 246 241 237 236 234 234 232 228 227 227 228 226 225 223 224 227 226 224 221 222 221 220 225 226 231 236 234 238 240 237 233 231 231 229 230 233 237 238 240 243 246 251 256
246 245 244 243 240 238 235 234 231 228 228 227 225 224 225 221 222 224 226 222 220 220 220 222 225 226 228 229 228 229 230 230 228 225 226 221 227 232 235 238 240 242 247 253 261
243 242 241 241 238 237 234 232 230 228 226 226 226 224 223 222 221 224 224 223 222 221 222 223 223 224 226 228 229 230 231 233 232 228 225 222 229 231 235 240 243 242 249 255 265
240 238 240 236 235 236 233 229 228 225 226 225 225 223 223 221 222 223 219 222 220 218 218 222 222 223 226 226 228 230 230 234 236 230 223 221 224 230 234 239 239 236 244 254 259
Height
5768 5768 5767 5767 5766 5766 5766 5766 5765 5765 5764 5765 5765 5765 5766 5767 5768 5770 5773 5776 5779 5783 5788 5792 5795 5799 5802 5805 5807 5812 5819 5821 5827 5832 5835 5838 5841 5844 5848 5851 5855 5858 5862 5864 5866
5764 5763 5763 5763 5762 5762 5762 5762 5762 5762 5761 5761 5761 5761 5762 5762 5763 5765 5768 5770 5773 5777 5781 5784 5788 5793 5796 5800 5801 5804 5813 5817 5816 5822 5829 5832 5836 5840 5844 5847 5850 5853 5856 5859 5861
5759 5758 5758 5758 5758 5758 5758 5759 5759 5759 5759 5758 5758 5758 5758 5758 5758 5760 5762 5764 5767 5770 5774 5778 5782 5787 5791 5794 5795 5799 5806 5808 5813 5817 5820 5825 5831 5836 5839 5843 5846 5850 5852 5854 5857
5753 5753 5753 5753 5753 5753 5754 5755 5756 5756 5756 5755 5755 5755 5754 5754 5756 5754 5756 5758 5761 5764 5768 5771 5775 5780 5784 5788 5790 5793 5797 5802 5807 5811 5816 5819 5824 5830 5835 5840 5843 5846 5848 5851 5853
5747 5748 5748 5748 5748 5749 5749 5751 5752 5752 5752 5752 5752 5751 5751 5751 5751 5751 5751 5753 5756 5758 5761 5764 5768 5772 5775 5779 5784 5787 5793 5797 5800 5807 5812 5816 5820 5825 5829 5834 5838 5841 5845 5847 5850
5740 5741 5742 5742 5743 5744 5744 5745 5747 5747 5748 5748 5748 5748 5748 5748 5748 5748 5748 5750 5752 5753 5756 5759 5761 5764 5768 5773 5777 5783 5788 5791 5795 5799 5806 5810 5814 5820 5823 5828 5831 5834 5839 5842 5845
5732 5733 5734 5735 5737 5738 5739 5740 5741 5742 5743 5744 5745 5745 5745 5746 5745 5744 5744 5746 5748 5749 5751 5753 5755 5758 5762 5767 5773 5778 5783 5786 5789 5793 5798 5804 5808 5811 5817 5822 5826 5828 5832 5835 5838
5724 5725 5727 5728 5730 5731 5733 5734 5736 5737 5738 5739 5741 5741 5742 5742 5742 5742 5742 5743 5744 5745 5747 5748 5749 5751 5756 5761 5765 5770 5776 5780 5783 5788 5793 5797 5801 5807 5811 5815 5819 5823 5826 5828 5831
5715 5717 5719 5721 5722 5724 5726 5728 5730 5731 5733 5734 5736 5737 5738 5738 5739 5739 5739 5740 5741 5742 5744 5745 5746 5747 5750 5754 5759 5764 5768 5771 5779 5783 5787 5791 5796 5801 5806 5809 5813 5816 5819 5822 5825
5706 5708 5710 5712 5715 5717 5719 5721 5723 5725 5727 5728 5730 5734 5735 5735 5735 5736 5737 5737 5738 5739 5741 5743 5744 5744 5745 5749 5753 5758 5761 5768 5772 5778 5781 5786 5791 5795 5799 5802 5805 5808 5811 5814 5817
5695 5698 5701 5704 5706 5709 5712 5715 5718 5720 5721 5723 5725 5727 5729 5732 5733 5734 5735 5735 5736 5737 5739 5741 5743 5743 5745 5749 5753 5757 5763 5766 5771 5775 5779 5782 5786 5789 5792 5795 5798 5801 5803 5806 5809
5685 5688 5691 5694 5697 5700 5703 5707 5710 5713 5714 5717 5718 5722 5724 5727 5730 5731 5733 5734 5734 5735 5737 5740 5742 5742 5743 5745 5750 5754 5758 5761 5767 5771 5775 5778 5781 5783 5786 5788 5791 5793 5796 5798 5800
5675 5678 5681 5684 5688 5691 5694 5699 5702 5704 5707 5710 5712 5716 5720 5723 5725 5727 5730 5731 5733 5733 5734 5736 5740 5742 5743 5745 5747 5751 5755 5760 5763 5767 5769 5771 5774 5776 5779 5781 5784 5787 5790 5792 5795
5664 5667 5670 5673 5679 5682 5686 5689 5693 5696 5699 5703 5705 5708 5713 5716 5720 5722 5725 5729 5731 5731 5731 5734 5737 5739 5741 5744 5747 5749 5752 5756 5759 5761 5764 5767 5768 5771 5774 5776 5779 5781 5783 5785 5787
5653 5656 5660 5663 5667 5672 5677 5680 5684 5689 5689 5695 5697 5702 5706 5710 5716 5718 5721 5724 5727 5729 5731 5733 5735 5738 5740 5742 5745 5747 5750 5753 5756 5758 5761 5763 5764 5765 5769 5772 5774 5776 5777 5779 5780
5643 5646 5649 5652 5656 5662 5666 5670 5676 5681 5677 5684 5690 5694 5699 5704 5707 5712 5715 5719 5722 5725 5727 5729 5732 5734 5737 5740 5742 5745 5748 5750 5753 5754 5756 5758 5760 5761 5763 5766 5768 5769 5771 5773 5774
5632 5634 5638 5641 5646 5650 5655 5660 5665 5666 5672 5678 5683 5688 5692 5696 5700 5705 5710 5713 5717 5720 5723 5726 5728 5730 5733 5736 5739 5741 5744 5746 5749 5749 5752 5754 5754 5756 5758 5760 5762 5764 5766 5767 5768
5619 5621 5625 5630 5634 5639 5644 5649 5652 5656 5664 5668 5676 5680 5684 5689 5692 5697 5702 5706 5711 5715 5718 5721 5725 5727 5730 5733 5738 5739 5741 5744 5745 5747 5748 5749 5750 5752 5753 5755 5757 5759 5761 5763 5765
5604 5608 5612 5618 5622 5627 5633 5636 5642 5647 5654 5660 5666 5671 5677 5681 5687 5690 5695 5700 5704 5709 5713 5715 5719 5722 5725 5728 5732 5734 5736 5739 5740 5742 5743 5745 5747 5748 5749 5751 5753 5755 5757 5759 5760
5590 5594 5599 5605 5609 5615 5620 5627 5632 5638 5644 5651 5657 5663 5668 5673 5678 5682 5687 5691 5697 5702 5705 5710 5714 5717 5720 5723 5726 5729 5732 5734 5735 5738 5739 5740 5742 5744 5746 5748 5750 5752 5753 5755 5756
5576 5581 5586 5591 5596 5601 5608 5615 5621 5627 5634 5641 5646 5653 5659 5665 5670 5674 5679 5685 5689 5693 5699 5704 5708 5712 5714 5717 5721 5724 5727 5729 5731 5733 5734 5736 5738 5739 5741 5744 5746 5748 5749 5750 5751
5562 5568 5572 5577 5584 5588 5595 5603 5611 5616 5622 5629 5636 5642 5649 5655 5661 5666 5671 5676 5680 5685 5691 5696 5701 5705 5709 5712 5715 5717 5720 5723 5725 5729 5730 5731 5734 5735 5737 5739 5741 5742 5744 5745 5746
5550 5555 5559 5565 5570 5576 5583 5591 5599 5606 5611 5617 5625 5632 5638 5645 5651 5656 5662 5666 5672 5677 5681 5689 5691 5697 5700 5704 5706 5711 5715 5718 5720 5723 5725 5727 5730 5730 5732 5734 5736 5738 5739 5740 5740
5539 5544 5548 5553 5558 5563 5569 5577 5586 5592 5598 5603 5612 5620 5627 5633 5639 5647 5653 5659 5664 5668 5673 5678 5683 5689 5696 5700 5705 5707 5710 5712 5714 5717 5721 5723 5724 5726 5728 5730 5731 5732 5733 5734 5735
5528 5532 5536 5540 5546 5551 5557 5565 5572 5579 5586 5591 5599 5607 5615 5622 5628 5635 5643 5649 5655 5660 5664 5668 5676 5681 5686 5691 5696 5700 5702 5705 5708 5713 5715 5718 5719 5720 5723 5725 5727 5728 5729 5729 5730
5517 5521 5525 5530 5535 5539 5544 5552 5558 5565 5572 5580 5587 5595 5603 5611 5618 5625 5633 5640 5646 5652 5657 5661 5667 5673 5678 5683 5688 5692 5695 5699 5703 5706 5710 5713 5714 5716 5718 5720 5722 5723 5724 5725 5725
5505 5510 5514 5520 5524 5528 5533 5540 5547 5552 5560 5567 5575 5583 5591 5598 5606 5613 5621 5628 5635 5641 5647 5652 5658 5664 5670 5675 5679 5681 5690 5695 5699 5702 5705 5707 5710 5710 5713 5715 5717 5719 5719 5720 5721